Tracking 19485 objects as of 21-Jan-2019
HD Live streaming from Space Station
objects crossing your sky now

FLOCK 3P 62

Track FLOCK 3P 62 now!
10-day predictions
FLOCK 3P 62 is classified as:


NORAD ID: 42036
Int'l Code: 2017-008CS
Perigee: 490.7 km
Apogee: 500.0 km
Inclination: 97.4 °
Period: 94.4 minutes
Semi major axis: 6866 km
RCS: Unknown
Launch date: February 15, 2017
Source: United States (US)
Launch site: SRIHARIKOTA (SRI)
aabbcc
Your satellite tracking list
Your tracking list is empty




NASA's NSSDC Master Catalog

Two Line Element Set (TLE):
1 42036U 17008CS  19020.84225225 +.00001654 +00000-0 +67454-4 0  9999
2 42036 097.4257 089.6525 0006756 340.3765 019.7212 15.25845704106468
Source of the keplerian elements: AFSPC